Wind_Speed
17 15 15 15 15 14 13 12 10 9 9 8 8 8 8 7 6 6 5 4 4 4 5 5 6 7 8 9 10 11 11 12 13 14 15 16 17 18 19 19 20 20 21 21 22 22 23 23 23 24 24 24 24 25 25 25 25 25 25 25 25 25 25 25 25 25 25 26 26
15 15 16 16 15 14 12 10 9 9 9 9 8 8 7 7 6 5 4 4 4 4 4 5 6 7 8 10 10 11 12 13 14 15 16 17 19 20 20 20 21 21 21 22 22 23 23 23 23 24 24 24 24 24 25 25 24 24 25 25 25 25 25 25 25 25 25 26 26
17 16 16 16 15 13 11 10 9 9 9 9 8 7 7 7 6 5 3 3 4 4 4 6 7 8 9 10 11 12 13 14 15 16 17 19 19 20 20 20 21 21 21 22 23 23 23 24 24 24 24 24 24 25 25 25 25 24 25 25 25 25 24 24 25 25 24 24 25
17 16 16 15 13 12 11 9 9 9 8 8 7 7 7 6 5 4 3 3 4 5 6 7 8 9 10 11 12 13 14 15 16 17 19 19 20 20 20 20 21 21 22 23 23 24 24 24 24 24 24 25 25 25 25 25 25 25 25 25 24 24 24 24 24 24 24 24 24
16 15 14 13 12 11 10 8 8 7 7 6 7 6 6 5 4 4 4 5 6 7 8 9 10 11 12 13 14 15 15 16 17 18 19 20 20 20 20 21 21 22 23 24 24 25 25 25 25 25 25 25 25 25 25 25 25 25 25 25 24 24 24 24 24 24 24 24 24
15 13 12 12 11 10 9 9 9 9 9 8 7 6 5 4 4 4 4 5 7 8 9 10 12 13 13 14 15 16 16 17 18 19 19 20 20 21 21 22 23 23 24 24 25 25 25 25 25 25 25 25 25 25 25 25 25 25 25 25 25 24 24 24 24 24 24 24 24
13 12 12 12 12 12 12 12 12 11 10 9 7 6 4 3 3 4 5 6 8 9 11 12 13 13 14 15 15 16 17 18 19 20 20 21 21 22 22 23 23 24 24 25 25 25 25 25 25 25 25 25 25 25 25 25 25 25 25 25 25 24 24 24 24 24 24 25 25
11 11 12 13 13 14 14 14 12 11 9 8 6 4 3 3 4 5 7 8 10 11 12 12 13 13 14 15 16 17 18 19 20 21 21 21 22 22 23 23 24 24 24 25 25 25 25 25 25 25 25 25 24 24 24 24 25 25 26 26 26 25 25 25 25 25 25 26 26
11 10 11 11 12 13 13 12 11 9 8 6 5 4 4 5 6 8 9 10 11 12 12 12 13 13 14 16 17 18 19 20 20 21 21 21 22 22 23 23 23 24 24 24 24 25 25 25 25 24 24 24 24 24 24 24 25 25 26 26 26 26 26 26 26 26 26 27 28
11 11 11 11 11 11 10 9 8 7 6 5 5 5 6 7 8 9 9 10 11 11 11 12 13 14 15 17 18 19 20 20 20 20 20 21 21 22 22 23 23 23 24 24 24 24 24 24 24 24 24 24 24 24 25 25 25 26 26 26 26 27 27 27 27 27 28 28 29
11 11 12 11 11 9 8 7 5 5 4 5 5 6 7 8 8 9 9 9 10 11 12 13 14 15 17 18 18 19 19 20 20 20 20 21 21 22 22 23 23 24 24 25 25 25 25 25 24 25 25 25 25 25 26 26 26 27 27 28 28 28 28 28 28 28 29 29 29
10 11 11 10 9 8 6 5 4 4 4 4 5 6 7 7 8 8 8 9 10 11 13 14 15 16 17 18 18 19 19 19 20 20 21 21 22 23 23 24 24 25 25 25 25 25 25 25 25 26 26 26 26 27 27 27 27 28 28 29 29 29 29 29 29 29 29 29 30
9 10 9 8 7 6 5 4 4 3 3 4 4 5 5 6 6 7 8 9 11 12 14 15 15 16 17 18 19 19 19 19 20 20 21 22 22 23 24 24 24 25 25 25 25 25 25 25 25 26 26 27 27 27 27 27 28 28 28 29 29 29 29 30 30 30 29 30 30
6 6 6 6 5 4 4 3 3 3 3 3 3 3 4 5 6 7 9 10 12 13 14 15 16 16 17 18 19 19 19 19 20 21 22 22 23 23 24 24 25 25 25 25 25 25 25 26 26 26 27 27 28 28 28 28 28 28 29 29 29 29 30 30 30 30 30 30 30
4 4 4 4 3 3 2 2 2 2 2 2 3 3 4 5 7 8 10 12 13 14 15 16 17 18 18 18 18 18 19 20 21 21 22 23 23 24 24 24 25 25 25 26 26 26 26 26 26 27 27 28 28 28 28 29 29 29 29 29 29 30 30 30 30 30 30 30 30
4 4 3 3 2 1 1 1 1 2 2 2 3 4 5 7 8 10 11 13 14 15 16 17 18 18 18 18 18 18 19 20 21 22 22 23 23 24 24 25 25 25 26 26 26 27 27 27 27 27 28 28 28 29 29 29 29 29 30 30 30 30 30 30 30 30 30 30 30
3 2 2 2 2 1 1 2 2 2 3 4 5 6 7 8 9 11 12 14 15 17 18 18 18 17 17 18 19 19 20 21 21 22 22 23 24 24 25 25 26 26 26 27 27 27 27 28 28 28 28 28 28 29 29 29 29 29 30 30 30 30 30 30 30 30 30 30 30
2 2 2 2 3 3 3 3 3 4 5 6 6 7 8 9 11 12 14 15 17 18 18 18 17 18 18 19 20 20 21 21 22 22 23 24 24 25 25 26 26 26 27 27 27 27 28 28 28 28 28 28 28 29 29 29 29 29 30 30 30 30 30 30 30 30 30 30 30
3 3 4 4 4 5 4 4 4 5 6 6 7 8 10 11 13 14 16 17 18 18 18 18 18 19 19 20 21 21 22 22 23 23 24 24 25 25 26 26 27 27 27 27 27 27 28 28 28 28 28 28 28 29 29 29 29 29 30 30 30 30 30 30 30 30 29 29 29
4 4 5 5 5 5 4 4 5 5 6 7 9 10 12 13 15 16 17 18 18 18 18 18 19 20 20 21 21 22 22 22 23 23 24 24 25 25 26 26 27 27 27 27 27 27 28 28 28 28 28 28 29 29 29 29 29 30 30 30 30 30 30 29 28 28 27 27 27
4 5 5 5 4 4 4 4 5 6 7 9 10 12 14 15 17 17 18 18 17 17 18 19 20 20 21 21 22 22 22 23 23 24 24 25 25 26 26 27 27 27 27 27 27 27 28 28 28 28 28 28 29 29 29 29 29 29 29 29 29 28 27 26 25 24 24 24 24
4 4 4 4 4 4 4 5 6 7 9 10 12 14 16 17 17 17 17 17 17 18 19 19 20 20 21 21 22 22 23 23 24 24 25 26 26 26 27 27 27 27 27 27 27 27 27 27 28 28 28 28 28 28 28 28 28 28 28 28 27 25 24 24 23 22 23 23 24
3 3 3 4 4 4 5 6 7 9 11 13 14 16 16 17 16 16 16 16 17 18 19 19 20 20 20 21 22 22 23 24 25 25 26 26 27 27 27 27 27 27 27 27 27 27 27 27 27 26 26 26 27 27 27 27 27 27 27 26 25 25 24 24 24 24 25 26 28
3 3 4 4 5 5 7 8 9 11 13 14 15 16 16 15 15 15 16 17 17 18 18 19 19 20 21 21 22 23 24 25 25 26 27 27 27 27 27 26 26 26 26 26 26 26 26 26 26 26 26 26 27 27 27 27 26 26 25 25 25 25 26 26 27 28 29 30 32
4 4 5 6 7 8 9 10 11 13 14 15 15 14 14 14 15 15 16 17 18 18 19 19 20 21 22 22 23 24 24 25 25 26 26 26 26 26 26 26 26 26 26 26 26 26 26 26 26 26 26 26 26 26 26 25 24 24 24 25 25 26 27 28 29 30 31 32 33
7 7 8 9 10 10 11 12 13 14 14 14 13 13 13 14 15 16 17 18 18 19 20 20 21 22 22 23 23 23 24 24 24 24 25 25 26 26 26 26 26 26 26 26 26 26 27 27 27 27 26 25 24 23 22 22 21 22 22 23 24 25 26 27 29 30 32 32 32
9 10 11 12 12 12 13 13 14 13 13 12 12 13 14 15 15 16 17 18 19 20 20 21 21 22 22 22 22 23 23 23 23 24 24 25 26 26 26 26 26 26 26 27 27 27 27 28 27 26 24 22 21 20 20 20 21 22 23 23 24 25 26 27 29 31 31 31 31
12 12 13 13 13 13 13 13 12 12 11 11 12 13 14 15 16 17 18 19 20 20 21 21 21 21 21 21 22 22 23 23 24 25 25 26 26 27 27 27 27 27 27 27 27 28 28 27 25 23 22 20 20 21 21 22 23 23 23 23 24 25 26 28 29 29 29 29 29
13 13 13 13 13 12 12 11 10 10 11 12 13 14 15 16 17 18 19 19 20 20 21 21 21 21 21 22 22 23 24 24 25 25 25 26 26 26 27 27 27 27 27 27 28 27 27 26 24 23 22 22 23 23 23 24 24 25 25 25 25 26 27 27 27 27 27 27 27
13 12 12 12 11 11 10 9 10 10 11 12 13 14 15 17 18 18 19 19 20 20 21 21 22 22 22 23 23 24 24 24 25 25 25 26 26 26 27 27 27 28 28 28 27 27 26 25 25 25 25 26 26 26 25 26 26 26 25 25 26 26 27 27 27 28 28 27 28
12 12 12 11 10 9 9 9 10 10 11 12 13 15 16 17 18 19 19 20 21 21 21 22 22 23 23 23 24 24 24 25 25 25 26 26 26 27 27 28 28 28 28 27 27 26 26 26 26 27 27 28 28 27 27 27 26 26 25 26 26 27 27 27 28 28 29 29 29
13 12 11 10 9 9 9 9 10 11 12 13 15 16 17 18 18 19 20 20 21 21 22 22 22 23 23 23 23 24 24 25 25 26 26 26 27 27 28 28 28 28 27 26 26 26 26 27 28 28 29 29 28 28 28 27 27 26 27 27 28 28 28 28 28 29 29 30 29
12 11 10 9 9 9 9 9 10 11 13 14 16 17 17 18 19 20 20 21 21 21 21 22 22 22 23 23 24 24 25 25 26 26 26 27 27 27 28 28 27 27 26 26 26 27 27 28 29 29 29 29 29 28 28 27 27 27 27 27 28 28 29 29 29 30 30 30 30
10 9 9 9 9 9 9 10 11 13 14 16 17 18 18 19 19 20 21 21 21 21 21 21 22 22 23 23 24 25 25 26 26 26 26 27 27 27 27 27 26 26 26 26 27 28 29 29 29 29 29 28 28 28 27 27 27 27 27 28 28 28 28 29 29 30 30 31 31
10 9 9 8 8 8 9 10 12 14 16 17 18 18 19 19 20 20 21 21 21 21 21 22 22 23 23 24 24 25 26 26 26 27 27 26 26 26 26 26 26 26 26 27 28 29 29 29 29 29 29 28 28 28 27 27 26 27 27 28 28 28 29 29 29 29 30 30 31
7 6 6 5 6 8 9 12 14 16 17 18 19 19 19 19 20 20 20 20 21 21 21 22 22 23 24 24 25 25 25 26 26 26 26 26 26 25 25 26 26 26 27 27 28 29 29 29 29 29 29 28 28 27 26 25 25 26 26 26 27 28 28 28 28 29 29 30 30
3 3 3 5 7 9 11 13 15 17 19 19 19 19 19 19 20 20 20 20 21 21 21 22 23 23 24 24 25 25 26 26 26 26 26 26 25 25 25 26 26 27 28 28 29 29 29 29 29 29 29 29 28 27 26 25 25 25 25 25 26 27 27 27 28 28 29 29 29
2 3 5 6 8 10 13 15 17 18 19 19 19 18 19 19 19 20 20 20 20 21 22 22 23 23 24 25 26 26 26 26 26 26 25 25 24 24 25 26 27 28 29 29 29 28 29 29 30 30 30 29 29 28 26 25 24 24 24 25 26 26 27 26 26 26 26 26 26
3 5 7 8 11 13 15 17 18 19 19 18 18 18 18 19 19 20 20 20 20 21 22 22 23 24 25 25 26 26 26 26 25 25 24 24 24 24 25 26 28 29 29 29 29 29 29 30 30 31 31 31 30 28 27 25 24 24 24 25 25 25 24 23 22 21 21 21 22
5 7 9 11 13 15 16 17 18 18 18 17 18 18 18 19 19 20 20 20 21 21 22 23 24 25 25 26 26 26 26 26 25 24 23 24 24 25 26 27 28 29 29 29 28 29 29 29 30 30 31 30 29 28 26 24 23 23 23 23 21 20 19 18 18 19 20 22 23
7 9 11 13 14 16 16 17 17 17 17 17 17 18 18 19 19 20 20 21 21 22 23 23 24 25 26 26 26 26 26 26 25 24 23 24 24 25 26 27 28 28 28 28 28 28 28 28 29 30 30 30 29 27 25 23 21 20 19 18 16 16 17 19 20 22 23 24 25
Wind_Direction
212 195 184 180 177 177 180 188 194 199 205 210 215 218 214 203 190 183 184 195 210 221 227 233 243 254 264 272 280 285 287 288 288 287 287 286 286 286 286 287 288 289 289 289 289 289 288 288 287 286 285 283 282 281 280 279 278 278 277 276 275 275 276 275 275 275 275 274 274
181 171 170 173 174 176 179 184 189 193 197 201 204 205 199 183 170 164 169 188 197 207 221 237 252 263 272 277 282 284 285 284 284 283 282 282 282 282 282 283 284 285 286 287 287 287 287 286 286 285 284 283 282 281 280 278 278 277 276 275 275 274 275 274 274 274 274 274 273
158 161 166 169 170 170 173 178 183 189 195 203 203 195 181 168 161 163 170 170 190 211 236 253 265 272 277 279 280 279 279 279 279 279 280 280 280 280 280 281 282 283 284 285 285 285 285 285 285 284 283 282 281 280 279 278 277 276 276 275 274 274 274 273 273 273 273 273 273
151 156 160 163 166 168 171 178 186 192 196 198 194 183 172 171 178 188 198 210 229 245 259 267 274 278 279 279 278 277 277 278 279 280 280 280 279 279 280 280 281 282 283 283 283 283 283 283 283 283 282 281 280 279 278 278 277 276 275 274 274 273 273 272 272 272 272 272 272
148 153 158 163 168 172 174 174 174 174 174 172 169 167 169 181 196 215 231 245 256 263 270 276 279 281 280 279 278 278 278 279 280 280 280 279 279 279 279 280 280 281 282 282 282 282 282 282 282 281 280 280 278 277 277 276 276 275 274 273 272 272 272 272 272 272 272 272 272
145 151 156 159 162 170 173 161 149 146 146 141 141 148 163 185 207 228 249 261 268 274 278 281 281 281 280 278 277 278 279 279 280 279 278 278 278 279 279 279 280 280 281 281 281 281 281 281 281 280 279 278 277 276 275 275 274 273 272 271 271 270 270 270 270 271 271 271 272
144 146 147 147 148 148 147 146 144 141 140 140 142 151 170 197 228 253 269 276 280 282 283 282 281 279 278 277 277 278 278 280 280 278 277 276 277 278 278 279 279 280 280 280 280 280 279 279 278 277 277 276 275 275 274 273 272 271 271 270 269 268 268 268 269 269 270 271 271
144 143 143 142 142 143 144 144 147 150 154 159 169 183 209 242 266 278 283 286 286 285 284 281 279 278 278 278 278 279 279 279 278 277 275 276 277 277 278 279 279 279 279 279 278 278 277 276 275 274 274 273 273 273 272 272 271 270 269 269 268 268 267 267 268 268 269 270 271
149 152 155 155 151 149 148 148 154 162 169 177 194 223 253 269 281 287 288 288 286 284 282 280 279 279 280 280 281 281 280 278 276 276 276 276 277 278 279 279 279 280 279 279 278 278 277 276 274 273 272 272 271 271 271 271 270 270 270 269 270 269 268 268 268 268 268 269 269
162 165 166 168 165 162 161 160 165 174 187 207 229 251 266 275 281 284 284 282 281 279 279 280 281 283 283 283 283 282 281 279 277 277 278 279 280 280 281 282 282 282 282 282 282 281 280 279 278 277 276 275 274 274 274 274 273 272 272 272 272 271 271 270 270 270 269 269 270
172 171 170 169 169 170 171 173 178 191 209 227 243 255 264 269 272 272 273 275 277 278 280 283 284 285 285 285 285 285 284 282 281 281 282 283 284 284 285 285 285 286 286 286 286 285 285 284 283 282 281 280 279 278 278 277 276 275 275 274 274 273 273 272 272 271 271 271 271
173 171 170 170 170 171 171 171 176 188 206 225 239 250 257 261 263 267 271 277 280 282 284 284 285 285 285 286 287 287 286 285 284 285 285 286 286 287 287 287 287 287 287 287 287 286 286 285 284 283 282 281 280 279 278 277 277 276 275 275 275 274 274 273 273 273 272 272 272
166 166 166 165 164 162 161 164 173 189 208 223 237 248 256 262 268 275 281 284 284 284 283 284 284 285 285 286 286 286 285 285 285 286 286 287 287 287 287 287 287 287 287 287 287 286 285 284 283 282 281 280 279 278 277 276 276 276 275 275 275 274 274 274 274 273 273 273 273
148 151 152 150 149 146 150 163 184 204 220 234 247 260 273 280 284 287 286 284 282 282 282 283 284 285 285 285 284 283 283 284 285 286 286 286 287 287 287 287 287 287 287 287 287 286 285 284 282 281 280 280 279 278 277 277 277 276 276 276 275 275 275 275 275 274 274 274 273
115 119 121 122 126 133 148 178 208 227 242 257 276 289 293 292 290 287 283 281 281 282 283 283 283 284 283 282 281 282 283 284 285 286 286 286 287 287 287 288 288 288 287 287 287 286 285 284 283 282 281 280 280 279 279 278 278 277 277 277 276 276 276 276 276 276 275 275 275
104 106 110 116 127 145 175 210 240 258 272 284 292 294 292 288 285 283 281 281 282 283 283 282 282 281 280 280 281 282 284 284 285 285 286 286 287 287 287 288 288 288 288 287 287 286 285 284 283 283 282 281 281 280 280 280 279 279 278 278 278 277 277 277 277 277 277 276 276
122 133 145 164 186 207 229 246 263 274 283 287 288 286 284 281 280 280 281 282 283 283 282 281 280 280 281 282 283 283 284 285 285 285 286 286 287 287 288 288 288 288 287 287 287 286 285 284 284 283 283 282 282 282 281 281 280 280 280 279 279 279 279 278 278 278 278 278 277
181 193 206 220 235 249 260 266 272 279 282 283 281 278 276 277 278 279 281 283 284 283 282 281 281 282 282 283 283 283 284 284 284 285 285 286 286 287 287 287 287 287 287 287 286 286 285 285 284 284 284 283 283 283 282 282 281 281 280 280 280 280 279 279 279 279 279 278 278
221 230 242 252 261 267 270 273 277 279 278 276 274 273 274 276 278 280 282 284 284 283 283 284 284 284 283 283 283 283 283 284 284 284 285 286 286 287 287 287 287 287 287 287 286 286 285 285 285 284 284 284 283 283 282 282 281 280 280 280 279 279 279 279 279 278 278 278 278
244 256 264 269 270 271 271 271 272 271 270 270 272 273 275 278 280 282 283 283 283 283 284 285 285 284 284 283 283 283 284 284 285 285 286 286 286 287 287 287 287 287 287 286 286 285 285 284 284 284 284 283 283 282 281 280 280 279 278 278 277 277 277 277 278 278 278 278 278
259 267 270 270 268 264 261 261 260 262 265 269 273 276 278 280 281 282 282 282 283 283 283 284 284 284 283 283 284 284 285 285 286 286 286 286 286 286 286 286 286 286 286 286 285 285 284 284 283 283 282 282 281 280 280 279 278 277 277 276 276 276 276 277 277 278 278 278 279
269 270 269 267 261 256 254 255 259 263 269 273 275 278 280 281 282 282 282 282 283 283 283 283 283 283 284 284 285 285 286 286 286 286 286 286 286 285 285 285 285 285 285 285 284 284 283 283 282 282 282 281 281 280 280 279 278 278 278 277 277 278 278 278 278 279 279 279 280
291 288 283 277 269 261 259 260 265 269 273 275 277 279 280 282 282 283 284 284 285 285 284 284 284 284 285 285 286 286 287 287 286 286 286 285 285 285 285 285 285 284 284 284 284 283 283 283 283 282 282 282 282 282 281 281 281 281 282 282 281 281 280 279 278 278 279 279 279
321 310 299 288 278 268 264 265 268 271 273 275 277 279 281 283 285 286 287 287 287 287 287 287 287 287 287 287 287 286 286 286 286 286 285 285 285 285 285 284 284 284 284 283 283 283 283 283 283 283 283 283 282 282 282 282 282 283 283 283 282 281 279 278 277 277 277 277 277
307 296 281 270 263 260 260 262 266 269 272 275 278 281 284 286 288 290 290 290 291 291 291 291 290 289 289 288 287 286 286 285 285 285 285 285 285 285 285 285 284 284 284 284 284 283 283 283 283 283 283 283 283 282 282 281 282 281 281 280 279 279 278 277 276 276 275 275 274
270 258 249 245 245 248 253 258 263 267 272 276 280 284 287 289 291 292 293 294 294 294 294 293 292 291 290 289 288 287 286 286 285 285 286 286 286 286 286 286 286 285 285 285 285 285 285 285 285 284 284 284 284 285 284 283 282 281 280 279 278 277 277 276 276 276 275 274 272
249 240 235 235 239 244 251 259 264 269 274 280 285 288 290 292 293 294 295 295 296 295 295 294 293 293 292 291 290 289 288 288 288 288 288 288 288 288 288 288 287 287 287 287 287 287 288 288 288 287 287 288 288 288 288 286 284 283 282 280 279 277 277 276 276 276 275 273 271
237 234 234 236 242 248 255 262 267 273 279 285 288 291 292 294 295 295 296 296 296 296 296 296 296 295 295 293 292 292 292 292 292 291 291 291 290 290 290 290 289 289 289 290 290 290 291 291 291 291 291 293 293 292 290 289 287 286 284 282 280 279 277 276 275 274 273 272 271
237 238 240 243 248 254 260 266 272 278 283 287 290 292 294 295 295 295 296 297 298 298 298 298 298 298 296 295 295 295 294 294 294 294 293 293 293 292 292 292 292 292 292 293 293 293 293 293 294 294 295 296 297 296 293 291 289 287 285 283 281 279 277 275 273 272 270 270 269
245 247 249 251 255 259 263 268 274 279 284 288 291 293 295 295 295 296 297 298 299 299 299 299 299 298 297 296 296 296 296 296 296 296 295 295 295 295 295 295 295 294 294 295 295 295 295 295 296 295 295 296 297 297 295 292 290 288 285 282 280 277 274 273 271 270 269 269 268
254 255 256 256 257 259 263 269 275 281 286 290 293 294 295 295 296 297 298 299 299 299 299 299 298 297 297 297 297 297 297 297 298 298 298 298 298 297 297 297 296 296 295 295 296 296 296 296 296 295 296 296 297 297 295 292 289 285 282 278 275 273 271 270 269 268 268 267 267
257 258 257 256 256 260 265 272 279 285 290 292 293 294 294 294 296 297 298 299 299 299 299 299 298 298 298 299 299 299 299 299 299 299 299 299 298 298 297 297 296 296 296 296 297 297 296 296 296 296 296 297 296 295 292 289 285 281 277 275 273 271 269 268 268 267 267 266 265
255 256 257 258 261 266 273 281 287 291 293 294 294 294 294 295 296 298 299 299 299 299 299 299 299 299 300 300 301 300 300 300 299 299 299 299 299 298 298 297 297 297 297 297 297 297 297 297 297 297 297 296 294 292 289 285 282 278 275 274 272 270 268 267 267 266 266 265 265
247 251 255 261 267 275 283 290 294 296 296 296 295 294 295 296 297 298 299 299 299 299 299 299 300 300 301 301 301 301 300 300 300 300 300 300 299 299 298 298 297 297 298 298 298 298 297 297 297 297 296 295 293 289 286 282 279 277 275 273 271 270 268 267 266 266 266 265 265
239 244 253 263 274 285 293 297 300 300 299 298 296 295 296 296 297 298 299 299 300 300 300 301 301 301 301 301 301 301 301 301 301 301 301 301 301 300 299 298 298 298 298 298 298 298 298 298 297 296 295 293 290 287 284 281 277 275 273 272 270 270 269 268 266 265 266 265 265
239 244 258 276 290 297 301 303 304 304 301 298 296 295 296 297 297 298 299 300 301 302 302 302 303 303 302 302 302 302 302 302 302 302 303 302 302 302 301 300 299 299 299 299 299 298 298 297 296 295 293 291 289 286 283 279 276 274 272 270 269 269 269 268 266 265 265 266 265
248 271 295 305 306 307 309 310 308 305 301 297 295 296 297 298 299 300 301 303 303 303 303 304 303 303 303 303 303 303 302 303 303 303 303 303 303 302 302 301 300 300 300 300 299 298 297 296 295 294 292 291 288 285 282 279 277 275 273 271 271 271 270 269 268 266 266 266 266
295 311 316 316 317 316 315 311 307 302 298 296 296 297 299 300 301 302 304 305 305 304 304 304 304 303 303 304 303 303 303 304 304 304 304 304 303 303 303 302 301 301 300 300 299 298 297 295 295 294 292 290 287 285 282 279 277 275 273 273 274 274 272 270 270 269 269 269 271
321 321 321 321 320 318 313 308 302 299 297 297 299 300 301 302 303 304 305 305 305 304 304 304 304 304 304 304 304 304 304 304 304 304 304 304 304 303 303 303 302 301 300 300 299 298 296 295 294 294 292 290 288 285 283 280 277 275 275 275 275 274 274 273 274 276 278 280 280
328 326 324 321 318 314 309 303 300 299 299 300 302 302 303 303 304 304 305 305 305 305 305 305 304 304 304 305 305 305 304 305 304 304 304 304 304 304 304 303 302 301 300 299 298 297 296 295 294 294 293 291 289 287 285 282 279 277 277 277 277 279 281 284 287 288 289 288 286
329 326 322 318 314 310 305 302 300 300 301 302 303 303 303 304 304 305 305 306 306 306 306 305 305 304 305 305 305 305 305 305 305 305 305 306 306 305 305 303 302 300 300 299 298 297 296 295 295 295 295 294 293 291 289 286 284 282 283 286 290 294 298 299 298 295 291 288 286
Height
764 766 767 768 770 772 774 776 777 778 780 781 782 783 783 784 784 785 785 786 787 788 789 790 791 792 793 793 793 794 794 794 795 795 795 795 795 794 794 793 793 793 792 792 792 791 791 790 789 789 788 788 787 786 786 785 785 785 784 783 783 783 782 782 781 781 780 780 780
762 764 765 768 770 772 774 775 777 778 779 781 782 783 783 783 784 784 785 786 787 788 790 791 792 792 793 793 793 793 794 794 794 794 794 794 794 793 793 792 792 791 791 790 790 789 789 788 788 787 786 786 785 784 784 783 783 783 782 782 781 781 780 780 779 779 779 778 778
761 763 765 767 769 771 773 775 777 778 779 781 781 782 783 783 784 784 785 787 788 788 790 791 791 792 792 792 793 793 793 793 793 793 793 793 792 792 791 791 790 790 789 789 788 788 787 787 786 785 785 784 783 783 782 782 782 781 781 780 779 779 779 778 778 777 777 777 776
761 763 765 767 769 771 773 774 776 778 780 781 781 782 783 783 784 785 786 787 788 788 789 790 791 791 791 792 792 792 792 792 792 792 791 791 790 790 789 789 788 788 788 787 787 786 785 785 784 783 783 782 782 781 781 780 780 779 779 778 778 778 777 777 776 776 775 775 774
761 763 765 767 769 771 773 774 776 778 780 781 781 782 783 783 784 785 786 787 788 788 789 790 790 790 791 791 791 791 791 791 791 790 790 789 789 788 788 787 787 786 786 785 785 784 783 783 783 782 781 781 780 779 779 779 778 778 777 777 776 776 775 775 774 774 774 773 773
762 764 765 767 769 770 772 774 776 778 779 780 781 782 783 784 785 786 786 787 788 788 789 789 789 790 790 790 790 790 790 789 789 789 788 788 787 787 786 786 785 784 784 783 783 782 782 781 781 780 779 779 778 778 777 777 777 776 775 775 774 774 774 773 773 773 772 772 771
763 764 766 768 769 770 772 773 775 777 778 780 781 783 783 784 785 786 786 787 787 788 788 789 789 789 789 789 789 788 788 788 788 787 787 786 785 785 784 783 783 783 782 781 781 780 780 779 779 778 778 777 777 776 775 775 775 774 773 773 773 773 772 772 771 771 770 770 769
764 766 767 768 770 770 771 773 774 776 778 780 781 782 783 784 784 785 786 786 787 787 788 788 788 788 788 788 788 787 787 786 786 785 785 784 783 783 782 782 781 781 780 779 779 778 778 778 777 776 776 775 775 774 773 773 773 772 772 771 771 770 770 770 769 769 768 768 768
765 767 768 769 770 771 772 773 774 776 778 779 781 782 783 783 784 785 785 786 786 787 787 787 787 787 787 787 786 786 785 785 784 783 783 783 782 781 781 780 779 779 778 778 777 777 776 775 775 774 773 773 773 772 772 771 771 770 770 769 769 768 768 768 768 767 767 766 766
766 767 768 769 771 771 772 773 774 776 778 779 780 781 782 783 784 784 785 785 786 786 786 786 786 786 786 785 785 784 784 783 783 782 781 781 780 780 779 778 778 777 776 776 775 775 774 773 773 772 771 771 770 770 769 769 769 768 768 767 767 766 766 766 766 765 765 764 764
766 768 769 770 771 772 773 773 775 776 778 779 780 781 782 783 783 784 784 785 785 785 785 785 785 785 784 784 783 783 782 782 781 780 780 779 778 778 777 777 776 775 775 774 773 773 772 772 771 770 770 769 769 768 768 768 767 766 766 765 765 764 764 763 763 763 763 763 762
767 768 769 770 771 772 773 774 775 777 778 779 780 781 781 782 783 783 784 784 784 784 784 784 784 784 783 783 782 781 781 780 779 779 778 778 777 777 776 775 774 774 773 773 772 771 771 770 769 768 768 768 767 767 766 766 765 764 764 763 763 763 762 762 762 761 761 761 760
768 769 770 771 772 772 773 774 775 777 778 778 779 780 781 781 782 782 783 783 783 783 783 783 783 783 782 781 781 780 779 779 778 778 777 776 776 775 774 773 773 772 771 771 770 770 769 768 768 767 766 766 765 765 764 764 763 763 762 761 761 760 760 760 759 759 759 759 758
769 769 770 771 772 773 774 775 776 777 778 778 779 779 780 781 781 782 782 783 783 782 782 782 781 781 780 780 779 778 778 777 777 776 775 775 774 773 773 772 771 770 770 769 768 768 767 767 766 765 764 763 763 763 762 762 761 761 760 759 759 758 758 758 758 757 757 757 756
769 770 771 772 773 773 774 775 776 776 777 778 778 779 779 780 781 781 781 781 781 781 781 780 780 779 779 778 778 777 777 776 775 775 774 773 773 772 771 770 769 769 768 767 767 766 765 765 764 763 763 762 761 760 760 760 759 758 758 757 757 756 756 756 755 755 755 755 754
770 770 771 772 773 773 774 775 775 776 777 777 778 778 779 780 780 780 780 780 780 779 779 778 778 777 777 777 776 776 775 774 774 773 772 772 771 770 769 768 768 767 766 766 765 764 763 763 762 761 761 760 759 758 758 758 757 756 756 755 755 754 754 753 753 753 753 753 752
770 771 771 772 773 773 774 774 775 776 776 777 778 778 779 779 779 779 779 779 778 778 777 777 776 776 775 775 775 774 774 773 772 772 771 770 769 768 768 767 766 765 764 764 763 762 761 761 760 759 759 758 757 757 756 755 755 754 754 753 753 753 752 752 752 751 751 751 750
770 771 771 772 772 773 773 774 775 775 776 777 777 778 778 778 778 778 778 777 777 776 776 775 775 774 774 773 773 773 772 772 771 770 769 768 768 767 766 765 764 763 763 762 761 760 759 759 758 757 757 756 755 755 754 754 753 753 752 752 751 751 750 750 750 750 749 749 748
770 770 771 771 772 772 773 773 774 775 776 776 777 777 777 777 777 777 776 776 775 775 774 774 773 773 773 772 772 771 771 770 769 768 768 767 766 765 764 763 763 762 761 760 759 758 758 757 756 755 755 754 753 753 752 752 751 751 750 750 749 749 748 748 748 748 748 747 747
769 770 770 771 772 772 773 773 774 775 775 776 776 776 776 776 776 775 775 774 774 773 773 773 772 772 771 771 770 769 769 768 768 767 766 765 764 763 763 762 761 760 759 758 758 757 756 755 754 754 753 752 752 751 750 750 749 749 748 748 748 747 747 747 746 746 746 745 745
769 769 770 771 772 772 773 773 774 775 775 775 775 775 775 774 774 773 773 773 772 772 772 771 771 770 770 769 768 768 767 766 766 765 764 763 762 762 761 760 759 758 757 757 756 755 754 753 753 752 751 750 750 749 748 748 747 747 746 746 745 745 745 744 744 744 743 743 743
769 769 770 771 771 772 773 773 774 774 774 774 774 774 773 773 773 772 772 771 771 771 770 770 769 768 768 767 767 766 765 764 764 763 762 761 760 759 759 758 757 756 755 754 753 753 752 751 751 750 749 748 748 747 746 746 745 744 744 743 743 743 743 743 742 742 742 742 741
769 769 770 771 771 772 773 773 773 773 773 773 773 773 772 772 771 771 770 770 770 769 769 768 768 767 766 766 765 764 763 763 762 761 760 759 758 758 757 756 755 754 753 752 752 751 750 749 748 748 747 747 746 745 744 744 743 743 742 741 741 741 741 740 740 740 740 740 739
769 770 770 771 772 772 772 772 773 773 772 772 772 771 771 770 770 769 769 769 768 768 767 767 766 765 765 764 763 763 762 761 760 759 758 757 756 756 755 754 753 752 751 750 749 749 748 748 747 746 745 745 744 743 742 742 741 741 740 740 739 739 738 738 738 738 738 738 738
769 769 770 771 771 772 772 772 772 771 771 770 770 769 769 769 768 768 768 767 767 766 766 765 764 763 763 762 761 761 760 759 758 757 756 755 754 753 753 752 751 750 749 748 747 747 746 746 745 744 743 743 742 741 740 740 739 739 738 738 738 737 736 736 736 736 736 735 735
768 769 770 770 770 770 770 770 770 770 769 769 768 768 768 768 768 767 767 766 765 765 764 763 763 762 761 760 759 758 758 757 756 755 754 753 752 751 750 750 749 748 747 746 745 745 744 744 743 743 742 741 740 739 738 738 738 737 737 736 736 735 734 733 733 733 733 732 732
768 768 768 768 768 769 768 768 768 768 768 768 768 767 767 767 766 766 765 764 764 763 763 762 761 760 759 758 758 757 756 755 754 753 752 751 750 749 748 748 747 746 745 744 743 743 742 742 741 741 740 739 738 737 737 736 736 735 735 734 733 733 732 731 730 730 729 729 728
766 766 766 766 767 767 767 767 767 767 767 767 767 766 766 766 765 764 764 763 762 762 761 760 759 758 758 757 756 755 754 753 752 751 750 749 748 747 746 745 744 743 743 742 742 741 740 740 739 738 738 737 736 735 735 734 734 733 733 732 731 731 730 729 728 728 727 726 726
764 764 765 765 765 765 765 765 765 766 766 766 766 765 765 764 764 763 763 762 761 760 759 758 758 757 756 755 754 753 752 751 750 749 748 747 746 745 744 743 743 742 741 740 740 739 738 738 737 736 736 735 734 733 733 733 732 731 730 730 729 728 728 727 726 725 724 724 723
763 763 763 763 764 764 764 764 765 765 765 765 764 764 764 763 763 762 761 760 759 759 758 757 756 755 754 753 752 751 750 749 748 748 747 745 744 743 743 742 741 740 739 738 738 737 737 736 735 734 733 733 732 732 731 730 730 729 728 728 727 726 725 724 723 723 722 721 721
762 762 762 763 763 763 763 763 764 764 764 764 763 763 763 762 761 761 760 759 758 757 756 756 755 753 753 752 751 750 748 748 747 746 745 744 743 742 741 740 739 738 737 737 736 735 734 733 733 732 732 731 730 730 729 728 728 727 726 725 724 723 723 722 721 720 719 718 718
761 761 761 762 762 762 763 763 763 763 763 763 763 762 761 761 760 759 758 758 757 756 755 754 753 752 751 750 749 748 747 746 745 744 743 742 741 740 739 738 737 736 736 735 734 733 733 732 731 730 730 729 728 728 727 726 725 724 723 723 722 721 720 719 718 717 716 716 715
760 761 761 761 761 762 762 762 762 762 762 762 761 761 760 759 758 758 757 756 755 754 753 753 751 750 749 748 747 746 745 744 743 743 742 741 740 738 737 736 735 735 734 733 732 731 731 730 729 728 728 727 727 726 725 724 723 722 721 719 718 718 717 716 715 714 713 713 712
759 760 760 761 761 761 761 761 761 761 761 761 760 759 759 758 757 757 756 755 754 753 752 751 750 749 748 747 746 745 743 743 742 741 740 739 738 737 736 734 733 733 732 732 731 730 729 728 727 727 726 725 724 723 722 721 720 719 718 717 715 714 714 713 712 711 710 709 708
758 759 760 760 760 760 760 761 761 760 760 760 759 758 758 757 756 755 754 753 753 752 750 749 748 748 747 745 744 743 742 741 740 739 738 737 736 735 734 733 732 731 731 730 729 728 727 726 725 725 724 723 722 721 720 718 717 716 715 713 712 711 710 710 709 708 707 706 705
758 758 759 759 759 760 760 760 760 759 759 758 758 757 756 755 755 754 753 752 751 750 749 748 747 746 745 744 743 742 741 740 738 738 737 736 735 733 732 731 730 729 729 728 727 726 725 724 723 723 722 721 720 718 717 716 714 713 712 710 709 708 707 706 705 704 703 703 702
757 758 758 758 758 759 759 759 759 758 758 757 756 755 755 754 753 752 752 751 750 748 748 747 746 744 743 743 741 740 739 738 737 736 735 734 733 732 731 729 728 728 727 726 725 724 723 722 721 720 719 718 717 716 714 713 712 710 709 708 706 705 704 703 702 701 700 699 698
757 757 757 758 758 758 758 758 758 757 756 755 755 754 753 753 752 751 750 749 748 747 746 745 744 743 742 741 740 738 738 737 736 735 734 733 732 731 730 728 727 726 725 724 723 723 722 720 719 718 717 716 715 713 712 710 709 707 706 705 703 702 701 700 699 698 697 697 696
756 757 757 757 757 757 757 757 756 756 755 754 753 753 752 752 751 750 749 748 747 746 745 744 743 742 740 739 738 737 736 735 734 734 733 731 730 729 728 727 725 724 723 723 722 721 720 718 717 716 715 714 713 711 709 708 706 704 703 702 701 699 698 698 697 696 695 694 694
756 756 756 756 756 756 756 755 755 754 753 753 752 752 751 750 749 748 748 747 746 745 744 743 741 740 739 738 737 736 734 733 733 732 731 730 729 728 727 726 724 723 722 721 720 719 718 717 715 714 713 712 710 709 707 705 703 702 701 700 698 698 696 696 695 694 693 693 692
755 756 756 756 756 755 755 754 753 753 753 752 751 751 750 749 748 747 746 745 744 743 743 741 740 739 738 737 736 734 733 732 731 730 730 729 728 727 726 725 723 722 720 719 718 717 716 715 714 713 711 710 708 707 705 703 702 700 699 698 697 696 695 694 693 693 692 690 689